Time,TemperatureF,DewpointF,PressureIn,WindDirection,WindDirectionDegrees,WindSpeedMPH,WindSpeedGustMPH,Humidity,HourlyPrecipIn,Conditions,Clouds,dailyrainin,SolarRadiationWatts/m^2,SoftwareType,DateUTC
2013-07-25 00:02:00,76.6,69.2,29.92,North,9,0.0,0.0,78,0.00,,,0.00,0.00,VWS V14.01,2013-07-25 05:02:00,
2013-07-25 00:07:00,76.4,69.0,29.92,North,360,0.0,4.0,78,0.00,,,0.00,0.00,VWS V14.01,2013-07-25 05:07:00,
2013-07-25 00:12:00,76.3,68.9,29.92,North,5,1.0,2.0,78,0.00,,,0.00,0.00,VWS V14.01,2013-07-25 05:12:00,
2013-07-25 00:17:00,76.1,68.8,29.93,ENE,65,2.0,3.0,78,0.00,,,0.00,0.00,VWS V14.01,2013-07-25 05:17:00,
2013-07-25 00:22:00,75.9,68.6,29.93,NE,44,0.0,1.0,78,0.00,,,0.00,0.00,VWS V14.01,2013-07-25 05:22:00,
2013-07-25 00:27:00,75.8,68.5,29.93,ENE,71,2.0,3.0,78,0.00,,,0.00,0.00,VWS V14.01,2013-07-25 05:27:00,
2013-07-25 00:32:00,75.6,68.3,29.92,ENE,65,0.0,1.0,78,0.00,,,0.00,0.00,VWS V14.01,2013-07-25 05:32:00,
2013-07-25 00:37:00,75.5,68.2,29.93,NE,49,2.0,2.0,78,0.00,,,0.00,0.00,VWS V14.01,2013-07-25 05:37:00,
2013-07-25 00:42:00,75.4,68.1,29.92,NE,44,0.0,5.0,78,0.00,,,0.00,0.00,VWS V14.01,2013-07-25 05:42:00,
2013-07-25 00:47:00,75.2,67.9,29.92,ENE,62,2.0,5.0,78,0.00,,,0.00,0.00,VWS V14.01,2013-07-25 05:47:00,
2013-07-25 00:52:00,75.1,67.8,29.92,ENE,63,0.0,1.0,78,0.00,,,0.00,0.00,VWS V14.01,2013-07-25 05:52:00,
2013-07-25 00:57:00,75.0,67.7,29.93,NNE,29,0.0,4.0,78,0.00,,,0.00,0.00,VWS V14.01,2013-07-25 05:57:00,
2013-07-25 01:02:00,74.9,67.6,29.92,NNE,13,1.0,3.0,78,0.00,,,0.00,0.00,VWS V14.01,2013-07-25 06:02:00,
2013-07-25 01:07:00,74.7,67.4,29.92,North,5,0.0,5.0,78,0.00,,,0.00,0.00,VWS V14.01,2013-07-25 06:07:00,
2013-07-25 01:12:00,74.6,67.3,29.92,NE,45,0.0,3.0,78,0.00,,,0.00,0.00,VWS V14.01,2013-07-25 06:12:00,
2013-07-25 01:17:00,74.4,67.1,29.93,ENE,71,2.0,3.0,78,0.00,,,0.00,0.00,VWS V14.01,2013-07-25 06:17:00,
2013-07-25 01:22:00,74.3,67.0,29.92,NNE,17,1.0,1.0,78,0.00,,,0.00,0.00,VWS V14.01,2013-07-25 06:22:00,
2013-07-25 01:27:00,74.1,66.4,29.92,NNE,12,0.0,3.0,77,0.00,,,0.00,0.00,VWS V14.01,2013-07-25 06:27:00,
2013-07-25 01:32:00,74.0,66.7,29.92,North,360,2.0,3.0,78,0.00,,,0.00,0.00,VWS V14.01,2013-07-25 06:32:00,
2013-07-25 01:37:00,73.8,66.5,29.92,North,350,0.0,3.0,78,0.00,,,0.00,0.00,VWS V14.01,2013-07-25 06:37:00,
2013-07-25 01:42:00,73.7,66.4,29.92,East,96,0.0,2.0,78,0.00,,,0.00,0.00,VWS V14.01,2013-07-25 06:42:00,
2013-07-25 01:47:00,73.5,66.2,29.93,NE,47,0.0,2.0,78,0.00,,,0.00,0.00,VWS V14.01,2013-07-25 06:47:00,
2013-07-25 01:52:00,73.4,66.1,29.93,NE,47,0.0,1.0,78,0.00,,,0.00,0.00,VWS V14.01,2013-07-25 06:52:00,
2013-07-25 01:57:00,73.2,65.9,29.92,NE,48,1.0,2.0,78,0.00,,,0.00,0.00,VWS V14.01,2013-07-25 06:57:00,
2013-07-25 02:02:00,73.1,65.8,29.93,NE,48,0.0,3.0,78,0.00,,,0.00,0.00,VWS V14.01,2013-07-25 07:02:00,
2013-07-25 02:07:00,72.9,66.0,29.92,NE,48,0.0,3.0,79,0.00,,,0.00,0.00,VWS V14.01,2013-07-25 07:07:00,
2013-07-25 02:12:00,72.8,65.9,29.92,NE,49,0.0,1.0,79,0.00,,,0.00,0.00,VWS V14.01,2013-07-25 07:12:00,
2013-07-25 02:17:00,72.6,65.7,29.92,NE,48,0.0,2.0,79,0.00,,,0.00,0.00,VWS V14.01,2013-07-25 07:17:00,
2013-07-25 02:22:00,72.4,65.5,29.93,NE,46,2.0,3.0,79,0.00,,,0.00,0.00,VWS V14.01,2013-07-25 07:22:00,
2013-07-25 02:27:00,72.3,65.8,29.92,NE,46,0.0,3.0,80,0.00,,,0.00,0.00,VWS V14.01,2013-07-25 07:27:00,
2013-07-25 02:32:00,72.2,65.7,29.92,NNE,22,0.0,0.0,80,0.00,,,0.00,0.00,VWS V14.01,2013-07-25 07:32:00,
2013-07-25 02:37:00,72.0,65.5,29.93,NNE,23,0.0,1.0,80,0.00,,,0.00,0.00,VWS V14.01,2013-07-25 07:37:00,
2013-07-25 02:42:00,71.9,65.4,29.93,NNE,24,0.0,3.0,80,0.00,,,0.00,0.00,VWS V14.01,2013-07-25 07:42:00,
2013-07-25 02:47:00,71.8,65.3,29.93,ENE,71,0.0,4.0,80,0.00,,,0.00,0.00,VWS V14.01,2013-07-25 07:47:00,
2013-07-25 02:52:00,71.7,65.6,29.93,ENE,61,1.0,3.0,81,0.00,,,0.00,0.00,VWS V14.01,2013-07-25 07:52:00,
2013-07-25 02:57:00,71.5,65.4,29.92,NE,52,3.0,3.0,81,0.00,,,0.00,0.00,VWS V14.01,2013-07-25 07:57:00,
2013-07-25 03:02:00,71.4,65.3,29.92,NNE,30,2.0,3.0,81,0.00,,,0.00,0.00,VWS V14.01,2013-07-25 08:02:00,
2013-07-25 03:07:00,71.3,65.2,29.93,NNE,31,0.0,3.0,81,0.00,,,0.00,0.00,VWS V14.01,2013-07-25 08:07:00,
2013-07-25 03:12:00,71.2,65.1,29.93,NNE,33,0.0,3.0,81,0.00,,,0.00,0.00,VWS V14.01,2013-07-25 08:12:00,
2013-07-25 03:17:00,71.0,64.9,29.93,NE,34,0.0,3.0,81,0.00,,,0.00,0.00,VWS V14.01,2013-07-25 08:17:00,
2013-07-25 03:22:00,71.0,65.2,29.93,NE,38,0.0,2.0,82,0.00,,,0.00,0.00,VWS V14.01,2013-07-25 08:22:00,
2013-07-25 03:27:00,70.8,65.0,29.93,NE,38,0.0,2.0,82,0.00,,,0.00,0.00,VWS V14.01,2013-07-25 08:27:00,
2013-07-25 03:32:00,70.6,64.8,29.93,NE,37,0.0,1.0,82,0.00,,,0.00,0.00,VWS V14.01,2013-07-25 08:32:00,
2013-07-25 03:37:00,70.4,64.7,29.93,NE,38,0.0,2.0,82,0.00,,,0.00,0.00,VWS V14.01,2013-07-25 08:37:00,
2013-07-25 03:42:00,70.3,64.6,29.93,NNE,26,0.0,5.0,82,0.00,,,0.00,0.00,VWS V14.01,2013-07-25 08:42:00,
2013-07-25 03:47:00,70.1,64.7,29.93,NNE,26,0.0,5.0,83,0.00,,,0.00,0.00,VWS V14.01,2013-07-25 08:47:00,
2013-07-25 03:52:00,70.0,64.6,29.93,NNE,26,0.0,3.0,83,0.00,,,0.00,0.00,VWS V14.01,2013-07-25 08:52:00,
2013-07-25 03:57:00,69.9,64.5,29.93,NNE,25,0.0,3.0,83,0.00,,,0.00,0.00,VWS V14.01,2013-07-25 08:57:00,
2013-07-25 04:02:00,69.7,64.3,29.93,NNE,25,0.0,3.0,83,0.00,,,0.00,0.00,VWS V14.01,2013-07-25 09:02:00,
2013-07-25 04:07:00,69.6,64.2,29.93,NNE,26,2.0,3.0,83,0.00,,,0.00,0.00,VWS V14.01,2013-07-25 09:07:00,
2013-07-25 04:12:00,69.5,64.5,29.93,NNE,26,0.0,0.0,84,0.00,,,0.00,0.00,VWS V14.01,2013-07-25 09:12:00,
2013-07-25 04:17:00,69.3,64.3,29.93,NNE,19,2.0,5.0,84,0.00,,,0.00,0.00,VWS V14.01,2013-07-25 09:17:00,
2013-07-25 04:22:00,69.3,64.3,29.94,North,360,0.0,1.0,84,0.00,,,0.00,0.00,VWS V14.01,2013-07-25 09:22:00,
2013-07-25 04:27:00,69.3,64.3,29.94,NNE,31,0.0,3.0,84,0.00,,,0.00,0.00,VWS V14.01,2013-07-25 09:27:00,
2013-07-25 04:32:00,69.2,64.2,29.94,NNE,30,0.0,3.0,84,0.00,,,0.00,0.00,VWS V14.01,2013-07-25 09:32:00,
2013-07-25 04:37:00,69.1,64.1,29.94,NNE,29,0.0,3.0,84,0.00,,,0.00,0.00,VWS V14.01,2013-07-25 09:37:00,
2013-07-25 04:42:00,69.1,64.1,29.94,NE,38,0.0,3.0,84,0.00,,,0.00,0.00,VWS V14.01,2013-07-25 09:42:00,
2013-07-25 04:47:00,68.9,63.5,29.94,NE,38,0.0,3.0,83,0.00,,,0.00,0.00,VWS V14.01,2013-07-25 09:47:00,
2013-07-25 04:52:00,68.8,63.4,29.95,NE,34,0.0,3.0,83,0.00,,,0.00,0.00,VWS V14.01,2013-07-25 09:52:00,
2013-07-25 04:57:00,68.8,63.8,29.95,NNE,33,0.0,4.0,84,0.00,,,0.00,0.00,VWS V14.01,2013-07-25 09:57:00,
2013-07-25 05:02:00,68.7,63.7,29.95,NNE,33,0.0,1.0,84,0.00,,,0.00,0.00,VWS V14.01,2013-07-25 10:02:00,
2013-07-25 05:07:00,68.5,63.5,29.95,NNE,33,0.0,3.0,84,0.00,,,0.00,0.00,VWS V14.01,2013-07-25 10:07:00,
2013-07-25 05:12:00,68.4,63.4,29.95,NNE,33,0.0,1.0,84,0.00,,,0.00,0.00,VWS V14.01,2013-07-25 10:12:00,
2013-07-25 05:17:00,68.3,63.3,29.95,NNE,33,0.0,1.0,84,0.00,,,0.00,0.00,VWS V14.01,2013-07-25 10:17:00,
2013-07-25 05:22:00,68.1,63.1,29.96,NNE,33,0.0,1.0,84,0.00,,,0.00,0.00,VWS V14.01,2013-07-25 10:22:00,
2013-07-25 05:27:00,68.0,63.3,29.96,NNE,33,0.0,1.0,85,0.00,,,0.00,0.00,VWS V14.01,2013-07-25 10:27:00,
2013-07-25 05:32:00,67.9,63.2,29.96,NNE,33,0.0,2.0,85,0.00,,,0.00,0.00,VWS V14.01,2013-07-25 10:32:00,
2013-07-25 05:37:00,67.7,63.0,29.96,NNE,33,0.0,2.0,85,0.00,,,0.00,0.00,VWS V14.01,2013-07-25 10:37:00,
2013-07-25 05:42:00,67.6,62.9,29.97,NNE,33,0.0,1.0,85,0.00,,,0.00,0.00,VWS V14.01,2013-07-25 10:42:00,
2013-07-25 05:47:00,67.6,62.9,29.97,NNE,33,0.0,2.0,85,0.00,,,0.00,0.00,VWS V14.01,2013-07-25 10:47:00,
2013-07-25 05:52:00,67.5,62.8,29.97,NNE,33,0.0,1.0,85,0.00,,,0.00,0.00,VWS V14.01,2013-07-25 10:52:00,
2013-07-25 05:57:00,67.4,62.7,29.97,NNE,33,0.0,2.0,85,0.00,,,0.00,0.00,VWS V14.01,2013-07-25 10:57:00,
2013-07-25 06:02:00,67.3,62.6,29.97,NNE,32,0.0,2.0,85,0.00,,,0.00,5.00,VWS V14.01,2013-07-25 11:02:00,
2013-07-25 06:07:00,67.2,62.5,29.97,NNE,33,0.0,4.0,85,0.00,,,0.00,7.00,VWS V14.01,2013-07-25 11:07:00,
2013-07-25 06:12:00,67.2,62.5,29.98,NNE,32,0.0,1.0,85,0.00,,,0.00,12.00,VWS V14.01,2013-07-25 11:12:00,
2013-07-25 06:17:00,67.1,62.5,29.98,NNE,32,0.0,1.0,85,0.00,,,0.00,14.00,VWS V14.01,2013-07-25 11:17:00,
2013-07-25 06:22:00,67.2,62.5,29.98,NNE,32,0.0,0.0,85,0.00,,,0.00,19.00,VWS V14.01,2013-07-25 11:22:00,
2013-07-25 06:27:00,67.3,62.6,29.98,NNE,32,0.0,1.0,85,0.00,,,0.00,25.00,VWS V14.01,2013-07-25 11:27:00,
2013-07-25 06:32:00,67.4,62.7,29.98,NNE,32,0.0,1.0,85,0.00,,,0.00,33.00,VWS V14.01,2013-07-25 11:32:00,
2013-07-25 06:37:00,67.6,62.9,29.98,NNE,32,0.0,3.0,85,0.00,,,0.00,42.00,VWS V14.01,2013-07-25 11:37:00,
2013-07-25 06:42:00,67.9,62.9,29.98,NNE,33,0.0,4.0,84,0.00,,,0.00,56.00,VWS V14.01,2013-07-25 11:42:00,
2013-07-25 06:47:00,68.2,63.2,29.98,NNE,32,1.0,4.0,84,0.00,,,0.00,74.00,VWS V14.01,2013-07-25 11:47:00,
2013-07-25 06:52:00,68.5,63.1,29.98,North,355,1.0,4.0,83,0.00,,,0.00,95.00,VWS V14.01,2013-07-25 11:52:00,
2013-07-25 06:57:00,68.8,63.1,29.98,North,5,0.0,4.0,82,0.00,,,0.00,125.00,VWS V14.01,2013-07-25 11:57:00,
2013-07-25 07:02:00,69.1,63.0,29.98,ENE,72,0.0,3.0,81,0.00,,,0.00,155.00,VWS V14.01,2013-07-25 12:02:00,
2013-07-25 07:07:00,69.5,63.4,29.98,NE,55,0.0,3.0,81,0.00,,,0.00,181.00,VWS V14.01,2013-07-25 12:07:00,
2013-07-25 07:12:00,69.9,63.5,29.99,NNE,29,0.0,4.0,80,0.00,,,0.00,207.00,VWS V14.01,2013-07-25 12:12:00,
2013-07-25 07:17:00,70.3,63.5,29.98,NNW,346,0.0,5.0,79,0.00,,,0.00,236.00,VWS V14.01,2013-07-25 12:17:00,
2013-07-25 07:23:00,70.7,63.5,29.98,NNE,30,1.0,2.0,78,0.00,,,0.00,244.00,VWS V14.01,2013-07-25 12:23:00,
2013-07-25 07:28:00,71.1,63.2,29.99,NNE,13,1.0,6.0,76,0.00,,,0.00,269.00,VWS V14.01,2013-07-25 12:28:00,
2013-07-25 07:33:00,71.5,63.5,29.99,ENE,60,1.0,3.0,76,0.00,,,0.00,276.00,VWS V14.01,2013-07-25 12:33:00,
2013-07-25 07:38:00,71.7,63.4,29.99,NNE,30,0.0,5.0,75,0.00,,,0.00,274.00,VWS V14.01,2013-07-25 12:38:00,
2013-07-25 07:43:00,72.3,63.6,29.99,ENE,59,7.0,7.0,74,0.00,,,0.00,287.00,VWS V14.01,2013-07-25 12:43:00,
2013-07-25 07:48:00,72.4,63.7,29.99,North,9,0.0,7.0,74,0.00,,,0.00,302.00,VWS V14.01,2013-07-25 12:48:00,
2013-07-25 07:53:00,72.6,63.5,29.99,NNE,17,1.0,4.0,73,0.00,,,0.00,320.00,VWS V14.01,2013-07-25 12:53:00,
2013-07-25 07:58:00,72.9,63.3,29.99,NNE,22,0.0,6.0,72,0.00,,,0.00,352.00,VWS V14.01,2013-07-25 12:58:00,
2013-07-25 08:03:00,73.6,64.4,29.99,NNE,17,2.0,3.0,73,0.00,,,0.00,376.00,VWS V14.01,2013-07-25 13:03:00,
2013-07-25 08:08:00,74.2,64.2,29.99,NNE,18,0.0,3.0,71,0.00,,,0.00,283.00,VWS V14.01,2013-07-25 13:08:00,
2013-07-25 08:13:00,74.2,63.8,29.99,North,10,1.0,5.0,70,0.00,,,0.00,281.00,VWS V14.01,2013-07-25 13:13:00,
2013-07-25 08:18:00,74.1,64.1,30.00,NNE,32,0.0,5.0,71,0.00,,,0.00,387.00,VWS V14.01,2013-07-25 13:18:00,
2013-07-25 08:23:00,74.3,64.3,29.99,NE,40,0.0,2.0,71,0.00,,,0.00,438.00,VWS V14.01,2013-07-25 13:23:00,
2013-07-25 08:28:00,74.8,64.4,29.99,ENE,75,4.0,4.0,70,0.00,,,0.00,425.00,VWS V14.01,2013-07-25 13:28:00,
2013-07-25 08:33:00,75.1,64.7,30.00,NE,46,0.0,4.0,70,0.00,,,0.00,446.00,VWS V14.01,2013-07-25 13:33:00,
2013-07-25 08:38:00,75.4,64.1,29.99,North,349,1.0,6.0,68,0.00,,,0.00,455.00,VWS V14.01,2013-07-25 13:38:00,
2013-07-25 08:43:00,75.3,64.4,29.99,NE,51,0.0,5.0,69,0.00,,,0.00,462.00,VWS V14.01,2013-07-25 13:43:00,
2013-07-25 08:48:00,75.5,64.6,30.00,East,87,1.0,5.0,69,0.00,,,0.00,489.00,VWS V14.01,2013-07-25 13:48:00,
2013-07-25 08:53:00,75.7,64.8,30.00,ENE,75,3.0,3.0,69,0.00,,,0.00,473.00,VWS V14.01,2013-07-25 13:53:00,
2013-07-25 08:58:00,75.8,64.9,30.00,NNW,332,0.0,6.0,69,0.00,,,0.00,545.00,VWS V14.01,2013-07-25 13:58:00,
2013-07-25 09:03:00,76.0,65.1,30.01,WNW,295,2.0,5.0,69,0.00,,,0.00,548.00,VWS V14.01,2013-07-25 14:03:00,
2013-07-25 09:08:00,75.9,64.6,30.00,North,349,2.0,5.0,68,0.00,,,0.00,468.00,VWS V14.01,2013-07-25 14:08:00,
2013-07-25 09:13:00,76.0,64.7,30.00,NW,313,1.0,4.0,68,0.00,,,0.00,578.00,VWS V14.01,2013-07-25 14:13:00,
2013-07-25 09:18:00,76.3,65.0,30.00,NNE,28,2.0,4.0,68,0.00,,,0.00,598.00,VWS V14.01,2013-07-25 14:18:00,
2013-07-25 09:23:00,76.2,64.0,30.00,NW,317,5.0,6.0,66,0.00,,,0.00,608.00,VWS V14.01,2013-07-25 14:23:00,
2013-07-25 09:28:00,76.1,64.8,30.00,NNE,30,3.0,6.0,68,0.00,,,0.00,628.00,VWS V14.01,2013-07-25 14:28:00,
2013-07-25 09:33:00,76.4,63.8,30.00,East,86,0.0,7.0,65,0.00,,,0.00,619.00,VWS V14.01,2013-07-25 14:33:00,
2013-07-25 09:38:00,76.9,63.8,30.00,NNW,345,2.0,7.0,64,0.00,,,0.00,554.00,VWS V14.01,2013-07-25 14:38:00,
2013-07-25 09:43:00,77.1,64.0,30.00,NNW,344,3.0,6.0,64,0.00,,,0.00,585.00,VWS V14.01,2013-07-25 14:43:00,
2013-07-25 09:48:00,77.2,64.1,30.00,NW,317,3.0,6.0,64,0.00,,,0.00,694.00,VWS V14.01,2013-07-25 14:48:00,
2013-07-25 09:53:00,77.6,64.0,30.00,East,101,5.0,7.0,63,0.00,,,0.00,708.00,VWS V14.01,2013-07-25 14:53:00,
2013-07-25 09:58:00,78.7,64.6,30.00,NNE,23,1.0,7.0,62,0.00,,,0.00,687.00,VWS V14.01,2013-07-25 14:58:00,
2013-07-25 10:03:00,79.6,65.4,30.00,WNW,303,3.0,6.0,62,0.00,,,0.00,729.00,VWS V14.01,2013-07-25 15:03:00,
2013-07-25 10:08:00,78.7,63.2,30.00,NNE,28,8.0,8.0,59,0.00,,,0.00,737.00,VWS V14.01,2013-07-25 15:08:00,
2013-07-25 10:13:00,78.2,63.7,30.01,NW,326,3.0,7.0,61,0.00,,,0.00,649.00,VWS V14.01,2013-07-25 15:13:00,
2013-07-25 10:18:00,77.6,63.1,30.01,North,360,1.0,10.0,61,0.00,,,0.00,745.00,VWS V14.01,2013-07-25 15:18:00,
2013-07-25 10:23:00,77.7,62.7,30.01,North,360,6.0,7.0,60,0.00,,,0.00,768.00,VWS V14.01,2013-07-25 15:23:00,
2013-07-25 10:28:00,78.4,63.8,30.01,East,82,1.0,9.0,61,0.00,,,0.00,789.00,VWS V14.01,2013-07-25 15:28:00,
2013-07-25 10:33:00,78.7,64.1,30.01,NNW,331,6.0,7.0,61,0.00,,,0.00,772.00,VWS V14.01,2013-07-25 15:33:00,
2013-07-25 10:38:00,78.7,63.7,30.02,NNE,19,0.0,10.0,60,0.00,,,0.00,786.00,VWS V14.01,2013-07-25 15:38:00,
2013-07-25 10:43:00,79.1,63.6,30.02,NW,323,6.0,8.0,59,0.00,,,0.00,826.00,VWS V14.01,2013-07-25 15:43:00,
2013-07-25 10:48:00,78.7,62.7,30.02,North,360,8.0,10.0,58,0.00,,,0.00,840.00,VWS V14.01,2013-07-25 15:48:00,
2013-07-25 10:53:00,78.7,63.2,30.02,NW,319,3.0,9.0,59,0.00,,,0.00,819.00,VWS V14.01,2013-07-25 15:53:00,
2013-07-25 10:58:00,78.7,63.7,30.02,NNE,22,4.0,11.0,60,0.00,,,0.00,837.00,VWS V14.01,2013-07-25 15:58:00,
2013-07-25 11:03:00,79.2,64.6,30.02,NNW,341,4.0,6.0,61,0.00,,,0.00,863.00,VWS V14.01,2013-07-25 16:03:00,
2013-07-25 11:08:00,78.8,62.8,30.02,North,360,3.0,13.0,58,0.00,,,0.00,877.00,VWS V14.01,2013-07-25 16:08:00,
2013-07-25 11:13:00,79.4,63.3,30.02,NE,40,3.0,9.0,58,0.00,,,0.00,900.00,VWS V14.01,2013-07-25 16:13:00,
2013-07-25 11:18:00,79.7,62.6,30.02,NW,318,6.0,9.0,56,0.00,,,0.00,896.00,VWS V14.01,2013-07-25 16:18:00,
2013-07-25 11:23:00,79.3,63.3,30.03,NE,41,4.0,7.0,58,0.00,,,0.00,923.00,VWS V14.01,2013-07-25 16:23:00,
2013-07-25 11:28:00,79.8,63.2,30.02,NE,43,3.0,8.0,57,0.00,,,0.00,928.00,VWS V14.01,2013-07-25 16:28:00,
2013-07-25 11:33:00,80.4,64.3,30.02,NNW,336,1.0,6.0,58,0.00,,,0.00,861.00,VWS V14.01,2013-07-25 16:33:00,
2013-07-25 11:38:00,80.5,63.9,30.03,ENE,78,3.0,6.0,57,0.00,,,0.00,928.00,VWS V14.01,2013-07-25 16:38:00,
2013-07-25 11:43:00,80.8,64.7,30.03,WNW,290,10.0,10.0,58,0.00,,,0.00,853.00,VWS V14.01,2013-07-25 16:43:00,
2013-07-25 11:48:00,80.7,63.6,30.03,NW,314,6.0,11.0,56,0.00,,,0.00,865.00,VWS V14.01,2013-07-25 16:48:00,
2013-07-25 11:53:00,80.9,63.2,30.03,NNW,334,3.0,5.0,55,0.00,,,0.00,865.00,VWS V14.01,2013-07-25 16:53:00,
2013-07-25 11:58:00,80.6,63.0,30.03,ESE,103,1.0,7.0,55,0.00,,,0.00,977.00,VWS V14.01,2013-07-25 16:58:00,
2013-07-25 12:03:00,80.8,63.7,30.03,NE,46,2.0,5.0,56,0.00,,,0.00,988.00,VWS V14.01,2013-07-25 17:03:00,
2013-07-25 12:08:00,80.6,64.0,30.04,East,94,0.0,6.0,57,0.00,,,0.00,967.00,VWS V14.01,2013-07-25 17:08:00,
2013-07-25 12:13:00,81.8,62.5,30.03,North,9,1.0,7.0,52,0.00,,,0.00,947.00,VWS V14.01,2013-07-25 17:13:00,
2013-07-25 12:18:00,81.6,63.4,30.03,North,5,2.0,7.0,54,0.00,,,0.00,928.00,VWS V14.01,2013-07-25 17:18:00,
2013-07-25 12:23:00,82.3,64.0,30.03,NNE,30,3.0,6.0,54,0.00,,,0.00,990.00,VWS V14.01,2013-07-25 17:23:00,
2013-07-25 12:28:00,81.5,63.8,30.03,West,272,5.0,8.0,55,0.00,,,0.00,967.00,VWS V14.01,2013-07-25 17:28:00,
2013-07-25 12:33:00,81.7,63.5,30.03,NW,323,4.0,10.0,54,0.00,,,0.00,1000.00,VWS V14.01,2013-07-25 17:33:00,
2013-07-25 12:38:00,82.3,64.0,30.03,NNE,15,5.0,10.0,54,0.00,,,0.00,990.00,VWS V14.01,2013-07-25 17:38:00,
2013-07-25 12:43:00,82.6,63.8,30.03,North,5,0.0,4.0,53,0.00,,,0.00,1000.00,VWS V14.01,2013-07-25 17:43:00,
2013-07-25 12:48:00,82.5,63.1,30.03,North,350,3.0,5.0,52,0.00,,,0.00,956.00,VWS V14.01,2013-07-25 17:48:00,
2013-07-25 12:53:00,81.5,62.2,30.03,WNW,298,8.0,11.0,52,0.00,,,0.00,960.00,VWS V14.01,2013-07-25 17:53:00,
2013-07-25 12:58:00,81.8,63.0,30.03,NNE,33,2.0,11.0,53,0.00,,,0.00,1002.00,VWS V14.01,2013-07-25 17:58:00,
2013-07-25 13:03:00,82.3,63.5,30.02,WNW,295,6.0,9.0,53,0.00,,,0.00,1002.00,VWS V14.01,2013-07-25 18:03:00,
2013-07-25 13:08:00,82.2,62.8,30.02,NW,318,3.0,9.0,52,0.00,,,0.00,1027.00,VWS V14.01,2013-07-25 18:08:00,
2013-07-25 13:13:00,82.0,63.2,30.02,SE,129,3.0,5.0,53,0.00,,,0.00,1020.00,VWS V14.01,2013-07-25 18:13:00,
2013-07-25 13:18:00,81.9,64.2,30.02,NNE,29,5.0,8.0,55,0.00,,,0.00,988.00,VWS V14.01,2013-07-25 18:18:00,
2013-07-25 13:23:00,82.3,64.5,30.02,NW,325,1.0,6.0,55,0.00,,,0.00,1011.00,VWS V14.01,2013-07-25 18:23:00,
2013-07-25 13:28:00,82.3,64.0,30.02,WNW,297,5.0,8.0,54,0.00,,,0.00,1013.00,VWS V14.01,2013-07-25 18:28:00,
2013-07-25 13:33:00,82.6,63.8,30.02,NW,309,4.0,9.0,53,0.00,,,0.00,1016.00,VWS V14.01,2013-07-25 18:33:00,
2013-07-25 13:38:00,83.2,64.3,30.01,SE,142,0.0,9.0,53,0.00,,,0.00,993.00,VWS V14.01,2013-07-25 18:38:00,
2013-07-25 13:43:00,82.7,64.4,30.01,NW,326,5.0,8.0,54,0.00,,,0.00,1005.00,VWS V14.01,2013-07-25 18:43:00,
2013-07-25 13:48:00,82.3,64.0,30.01,WNW,299,9.0,9.0,54,0.00,,,0.00,1013.00,VWS V14.01,2013-07-25 18:48:00,
2013-07-25 13:53:00,83.0,64.7,30.01,WNW,300,0.0,6.0,54,0.00,,,0.00,889.00,VWS V14.01,2013-07-25 18:53:00,
2013-07-25 13:58:00,83.4,65.0,30.01,North,360,3.0,9.0,54,0.00,,,0.00,863.00,VWS V14.01,2013-07-25 18:58:00,
2013-07-25 14:03:00,83.8,64.9,30.01,NW,317,8.0,8.0,53,0.00,,,0.00,947.00,VWS V14.01,2013-07-25 19:03:00,
2013-07-25 14:08:00,83.7,64.2,30.01,NNE,24,2.0,12.0,52,0.00,,,0.00,970.00,VWS V14.01,2013-07-25 19:08:00,
2013-07-25 14:13:00,83.7,63.7,30.01,NW,315,5.0,11.0,51,0.00,,,0.00,967.00,VWS V14.01,2013-07-25 19:13:00,
2013-07-25 14:18:00,83.2,63.8,30.01,NW,304,5.0,13.0,52,0.00,,,0.00,937.00,VWS V14.01,2013-07-25 19:18:00,
2013-07-25 14:23:00,83.2,64.3,30.01,NW,311,4.0,6.0,53,0.00,,,0.00,951.00,VWS V14.01,2013-07-25 19:23:00,
2013-07-25 14:28:00,83.0,64.7,30.01,NNE,22,1.0,8.0,54,0.00,,,0.00,932.00,VWS V14.01,2013-07-25 19:28:00,
2013-07-25 14:33:00,83.2,64.8,30.01,NNW,340,6.0,7.0,54,0.00,,,0.00,977.00,VWS V14.01,2013-07-25 19:33:00,
2013-07-25 14:38:00,83.5,65.1,30.01,NNW,346,4.0,9.0,54,0.00,,,0.00,963.00,VWS V14.01,2013-07-25 19:38:00,
2013-07-25 14:43:00,83.7,64.2,30.01,North,349,4.0,9.0,52,0.00,,,0.00,944.00,VWS V14.01,2013-07-25 19:43:00,
2013-07-25 14:48:00,83.6,64.7,30.01,NW,325,2.0,9.0,53,0.00,,,0.00,921.00,VWS V14.01,2013-07-25 19:48:00,
2013-07-25 14:53:00,83.5,65.1,30.01,NNW,340,2.0,10.0,54,0.00,,,0.00,956.00,VWS V14.01,2013-07-25 19:53:00,
2013-07-25 14:58:00,83.4,65.0,30.01,NW,321,1.0,10.0,54,0.00,,,0.00,965.00,VWS V14.01,2013-07-25 19:58:00,
2013-07-25 15:03:00,83.8,64.3,30.01,NE,50,2.0,4.0,52,0.00,,,0.00,969.00,VWS V14.01,2013-07-25 20:03:00,
2013-07-25 15:08:00,84.6,63.9,30.01,ENE,69,1.0,6.0,50,0.00,,,0.00,912.00,VWS V14.01,2013-07-25 20:08:00,
2013-07-25 15:13:00,84.4,64.3,30.01,NE,46,5.0,8.0,51,0.00,,,0.00,886.00,VWS V14.01,2013-07-25 20:13:00,
2013-07-25 15:18:00,84.0,63.9,30.01,North,360,6.0,8.0,51,0.00,,,0.00,928.00,VWS V14.01,2013-07-25 20:18:00,
2013-07-25 15:23:00,84.2,63.6,30.01,North,360,3.0,6.0,50,0.00,,,0.00,833.00,VWS V14.01,2013-07-25 20:23:00,
2013-07-25 15:28:00,84.2,62.4,30.01,North,355,2.0,8.0,48,0.00,,,0.00,724.00,VWS V14.01,2013-07-25 20:28:00,
2013-07-25 15:33:00,84.0,63.4,30.01,NNE,14,2.0,5.0,50,0.00,,,0.00,823.00,VWS V14.01,2013-07-25 20:33:00,
2013-07-25 15:38:00,84.4,64.3,30.01,North,5,2.0,6.0,51,0.00,,,0.00,821.00,VWS V14.01,2013-07-25 20:38:00,
2013-07-25 15:43:00,83.6,63.0,30.01,NW,323,3.0,8.0,50,0.00,,,0.00,824.00,VWS V14.01,2013-07-25 20:43:00,
2013-07-25 15:48:00,83.9,63.3,30.01,North,355,4.0,8.0,50,0.00,,,0.00,636.00,VWS V14.01,2013-07-25 20:48:00,
2013-07-25 15:53:00,83.4,62.8,30.01,North,360,5.0,6.0,50,0.00,,,0.00,578.00,VWS V14.01,2013-07-25 20:53:00,
2013-07-25 15:58:00,83.3,62.7,30.01,NW,304,2.0,8.0,50,0.00,,,0.00,434.00,VWS V14.01,2013-07-25 20:58:00,
2013-07-25 16:03:00,83.6,63.6,30.01,WNW,294,1.0,7.0,51,0.00,,,0.00,480.00,VWS V14.01,2013-07-25 21:03:00,
2013-07-25 16:08:00,82.9,63.5,30.02,North,360,3.0,7.0,52,0.00,,,0.00,318.00,VWS V14.01,2013-07-25 21:08:00,
2013-07-25 16:13:00,82.5,63.7,30.01,NNW,336,3.0,8.0,53,0.00,,,0.00,418.00,VWS V14.01,2013-07-25 21:13:00,
2013-07-25 16:18:00,82.5,63.7,30.02,NW,324,2.0,8.0,53,0.00,,,0.00,652.00,VWS V14.01,2013-07-25 21:18:00,
2013-07-25 16:23:00,83.3,64.9,30.02,NNW,331,1.0,4.0,54,0.00,,,0.00,635.00,VWS V14.01,2013-07-25 21:23:00,
2013-07-25 16:28:00,83.4,64.5,30.03,NNW,348,2.0,9.0,53,0.00,,,0.00,640.00,VWS V14.01,2013-07-25 21:28:00,
2013-07-25 16:33:00,83.6,64.7,30.03,NNE,17,3.0,6.0,53,0.00,,,0.00,418.00,VWS V14.01,2013-07-25 21:33:00,
2013-07-25 16:38:00,83.1,64.2,30.03,NNW,330,4.0,7.0,53,0.00,,,0.00,394.00,VWS V14.01,2013-07-25 21:38:00,
2013-07-25 16:43:00,82.2,63.9,30.03,North,360,2.0,6.0,54,0.00,,,0.00,413.00,VWS V14.01,2013-07-25 21:43:00,
2013-07-25 16:48:00,82.1,63.8,30.02,NW,314,0.0,7.0,54,0.00,,,0.00,501.00,VWS V14.01,2013-07-25 21:48:00,
2013-07-25 16:53:00,82.2,64.4,30.02,NNW,342,5.0,12.0,55,0.00,,,0.00,466.00,VWS V14.01,2013-07-25 21:53:00,
2013-07-25 16:58:00,82.1,63.3,30.02,NNW,345,5.0,12.0,53,0.00,,,0.00,403.00,VWS V14.01,2013-07-25 21:58:00,
2013-07-25 17:03:00,82.0,63.7,30.02,NNW,336,2.0,5.0,54,0.00,,,0.00,283.00,VWS V14.01,2013-07-25 22:03:00,
2013-07-25 17:08:00,81.7,64.5,30.02,NNW,332,5.0,8.0,56,0.00,,,0.00,345.00,VWS V14.01,2013-07-25 22:08:00,
2013-07-25 17:13:00,81.4,64.7,30.02,North,5,5.0,8.0,57,0.00,,,0.00,311.00,VWS V14.01,2013-07-25 22:13:00,
2013-07-25 17:18:00,80.9,64.2,30.02,NW,326,2.0,10.0,57,0.00,,,0.00,285.00,VWS V14.01,2013-07-25 22:18:00,
2013-07-25 17:23:00,80.9,63.8,30.01,NW,315,7.0,9.0,56,0.00,,,0.00,292.00,VWS V14.01,2013-07-25 22:23:00,
2013-07-25 17:28:00,80.5,63.9,30.01,North,349,3.0,12.0,57,0.00,,,0.00,279.00,VWS V14.01,2013-07-25 22:28:00,
2013-07-25 17:33:00,80.1,63.5,30.01,North,355,4.0,11.0,57,0.00,,,0.00,262.00,VWS V14.01,2013-07-25 22:33:00,
2013-07-25 17:38:00,80.2,63.6,30.01,North,350,2.0,11.0,57,0.00,,,0.00,285.00,VWS V14.01,2013-07-25 22:38:00,
2013-07-25 17:43:00,80.4,63.8,30.01,NW,321,1.0,6.0,57,0.00,,,0.00,360.00,VWS V14.01,2013-07-25 22:43:00,
2013-07-25 17:48:00,80.7,64.1,30.01,NNE,14,4.0,6.0,57,0.00,,,0.00,339.00,VWS V14.01,2013-07-25 22:48:00,
2013-07-25 17:53:00,80.8,63.7,30.01,NNW,344,7.0,8.0,56,0.00,,,0.00,471.00,VWS V14.01,2013-07-25 22:53:00,
2013-07-25 17:58:00,80.8,64.2,30.01,NNE,24,2.0,8.0,57,0.00,,,0.00,380.00,VWS V14.01,2013-07-25 22:58:00,
2013-07-25 18:03:00,80.9,64.8,30.01,North,355,0.0,4.0,58,0.00,,,0.00,387.00,VWS V14.01,2013-07-25 23:03:00,
2013-07-25 18:08:00,81.1,64.4,30.01,West,267,3.0,8.0,57,0.00,,,0.00,323.00,VWS V14.01,2013-07-25 23:08:00,
2013-07-25 18:13:00,81.1,63.9,30.01,North,360,6.0,7.0,56,0.00,,,0.00,227.00,VWS V14.01,2013-07-25 23:13:00,
2013-07-25 18:18:00,80.7,64.1,30.01,North,11,0.0,7.0,57,0.00,,,0.00,141.00,VWS V14.01,2013-07-25 23:18:00,
2013-07-25 18:23:00,80.2,64.6,30.00,NNW,330,1.0,5.0,59,0.00,,,0.00,151.00,VWS V14.01,2013-07-25 23:23:00,
2013-07-25 18:28:00,79.7,64.1,30.01,North,355,1.0,6.0,59,0.00,,,0.00,113.00,VWS V14.01,2013-07-25 23:28:00,
2013-07-25 18:33:00,79.3,64.2,30.01,NNE,15,1.0,5.0,60,0.00,,,0.00,102.00,VWS V14.01,2013-07-25 23:33:00,
2013-07-25 18:38:00,79.0,63.9,30.01,WNW,296,1.0,8.0,60,0.00,,,0.00,100.00,VWS V14.01,2013-07-25 23:38:00,
2013-07-25 18:43:00,78.8,64.2,30.01,NNW,344,3.0,6.0,61,0.00,,,0.00,100.00,VWS V14.01,2013-07-25 23:43:00,
2013-07-25 18:48:00,78.7,63.7,30.01,North,360,3.0,6.0,60,0.00,,,0.00,97.00,VWS V14.01,2013-07-25 23:48:00,
2013-07-25 18:53:00,78.6,64.0,30.01,NNE,24,3.0,5.0,61,0.00,,,0.00,91.00,VWS V14.01,2013-07-25 23:53:00,
2013-07-25 18:58:00,78.5,64.0,30.00,NNE,19,0.0,5.0,61,0.00,,,0.00,83.00,VWS V14.01,2013-07-25 23:58:00,
2013-07-25 19:03:00,78.4,63.8,30.00,NNE,20,1.0,3.0,61,0.00,,,0.00,74.00,VWS V14.01,2013-07-26 00:03:00,
2013-07-25 19:08:00,78.3,63.8,30.00,North,350,2.0,4.0,61,0.00,,,0.00,70.00,VWS V14.01,2013-07-26 00:08:00,
2013-07-25 19:13:00,78.2,63.7,30.00,NNW,348,4.0,6.0,61,0.00,,,0.00,69.00,VWS V14.01,2013-07-26 00:13:00,
2013-07-25 19:18:00,78.1,64.0,30.00,NNW,342,2.0,6.0,62,0.00,,,0.00,63.00,VWS V14.01,2013-07-26 00:18:00,
2013-07-25 19:23:00,78.0,63.9,30.01,NW,325,4.0,5.0,62,0.00,,,0.00,56.00,VWS V14.01,2013-07-26 00:23:00,
2013-07-25 19:28:00,77.9,63.8,30.01,North,10,2.0,5.0,62,0.00,,,0.00,51.00,VWS V14.01,2013-07-26 00:28:00,
2013-07-25 19:33:00,77.9,63.8,30.00,North,9,1.0,3.0,62,0.00,,,0.00,40.00,VWS V14.01,2013-07-26 00:33:00,
2013-07-25 19:38:00,77.8,63.8,30.00,North,11,2.0,4.0,62,0.00,,,0.00,33.00,VWS V14.01,2013-07-26 00:38:00,
2013-07-25 19:43:00,77.7,63.7,30.00,NNW,337,3.0,7.0,62,0.00,,,0.00,35.00,VWS V14.01,2013-07-26 00:43:00,
2013-07-25 19:48:00,77.8,63.8,30.01,NNW,341,4.0,7.0,62,0.00,,,0.00,21.00,VWS V14.01,2013-07-26 00:48:00,
2013-07-25 19:53:00,77.6,63.1,30.01,NW,311,1.0,6.0,61,0.00,,,0.00,14.00,VWS V14.01,2013-07-26 00:53:00,
2013-07-25 19:58:00,77.3,63.3,30.01,NW,315,3.0,7.0,62,0.00,,,0.00,9.00,VWS V14.01,2013-07-26 00:58:00,
2013-07-25 20:03:00,77.1,63.1,30.01,NW,326,0.0,5.0,62,0.00,,,0.00,5.00,VWS V14.01,2013-07-26 01:03:00,
2013-07-25 20:08:00,77.0,63.5,30.00,NW,326,2.0,5.0,63,0.00,,,0.00,0.00,VWS V14.01,2013-07-26 01:08:00,
2013-07-25 20:13:00,76.9,63.4,30.00,NNW,329,4.0,4.0,63,0.00,,,0.00,0.00,VWS V14.01,2013-07-26 01:13:00,
2013-07-25 20:18:00,76.7,63.2,30.01,North,355,3.0,5.0,63,0.00,,,0.00,0.00,VWS V14.01,2013-07-26 01:18:00,
2013-07-25 20:23:00,76.6,63.5,30.01,NW,321,3.0,6.0,64,0.00,,,0.00,0.00,VWS V14.01,2013-07-26 01:23:00,
2013-07-25 20:28:00,76.4,63.8,30.01,NW,326,3.0,9.0,65,0.00,,,0.00,0.00,VWS V14.01,2013-07-26 01:28:00,
2013-07-25 20:33:00,76.2,64.0,30.01,NNW,327,4.0,7.0,66,0.00,,,0.00,0.00,VWS V14.01,2013-07-26 01:33:00,
2013-07-25 20:38:00,76.0,64.3,30.01,NNW,341,5.0,7.0,67,0.00,,,0.00,0.00,VWS V14.01,2013-07-26 01:38:00,
2013-07-25 20:43:00,75.8,63.6,30.01,WNW,299,8.0,8.0,66,0.00,,,0.00,0.00,VWS V14.01,2013-07-26 01:43:00,
2013-07-25 20:48:00,75.7,64.0,30.02,NNW,329,5.0,8.0,67,0.00,,,0.00,0.00,VWS V14.01,2013-07-26 01:48:00,
2013-07-25 20:53:00,75.6,63.9,30.02,NNW,344,2.0,5.0,67,0.00,,,0.00,0.00,VWS V14.01,2013-07-26 01:53:00,
2013-07-25 20:58:00,75.5,63.8,30.02,NNW,336,1.0,5.0,67,0.00,,,0.00,0.00,VWS V14.01,2013-07-26 01:58:00,
2013-07-25 21:03:00,75.3,63.2,30.02,NNW,332,4.0,7.0,66,0.00,,,0.00,0.00,VWS V14.01,2013-07-26 02:03:00,
2013-07-25 21:08:00,75.3,63.2,30.02,NNW,328,6.0,8.0,66,0.00,,,0.00,0.00,VWS V14.01,2013-07-26 02:08:00,
2013-07-25 21:13:00,75.2,63.1,30.02,NNW,346,4.0,7.0,66,0.00,,,0.00,0.00,VWS V14.01,2013-07-26 02:13:00,
2013-07-25 21:18:00,75.1,63.0,30.02,NNW,330,2.0,7.0,66,0.00,,,0.00,0.00,VWS V14.01,2013-07-26 02:18:00,
2013-07-25 21:23:00,74.9,62.8,30.02,NNW,333,1.0,4.0,66,0.00,,,0.00,0.00,VWS V14.01,2013-07-26 02:23:00,
2013-07-25 21:28:00,74.8,62.7,30.02,NNW,336,2.0,4.0,66,0.00,,,0.00,0.00,VWS V14.01,2013-07-26 02:28:00,
2013-07-25 21:33:00,74.7,62.6,30.03,NNW,337,1.0,3.0,66,0.00,,,0.00,0.00,VWS V14.01,2013-07-26 02:33:00,
2013-07-25 21:38:00,74.6,62.5,30.02,NW,321,0.0,4.0,66,0.00,,,0.00,0.00,VWS V14.01,2013-07-26 02:38:00,
2013-07-25 21:43:00,74.5,62.4,30.02,NW,320,0.0,2.0,66,0.00,,,0.00,0.00,VWS V14.01,2013-07-26 02:43:00,
2013-07-25 21:48:00,74.3,62.6,30.02,NW,320,1.0,2.0,67,0.00,,,0.00,0.00,VWS V14.01,2013-07-26 02:48:00,
2013-07-25 21:53:00,74.2,62.5,30.03,NW,321,0.0,3.0,67,0.00,,,0.00,0.00,VWS V14.01,2013-07-26 02:53:00,
2013-07-25 21:58:00,74.0,62.4,30.03,North,351,1.0,3.0,67,0.00,,,0.00,0.00,VWS V14.01,2013-07-26 02:58:00,
2013-07-25 22:03:00,73.9,62.3,30.03,North,350,0.0,0.0,67,0.00,,,0.00,0.00,VWS V14.01,2013-07-26 03:03:00,
2013-07-25 22:08:00,73.7,62.5,30.02,North,351,1.0,3.0,68,0.00,,,0.00,0.00,VWS V14.01,2013-07-26 03:08:00,
2013-07-25 22:13:00,73.6,62.4,30.02,North,351,0.0,2.0,68,0.00,,,0.00,0.00,VWS V14.01,2013-07-26 03:13:00,
2013-07-25 22:18:00,73.5,62.3,30.02,North,351,0.0,2.0,68,0.00,,,0.00,0.00,VWS V14.01,2013-07-26 03:18:00,
2013-07-25 22:23:00,73.3,62.1,30.02,North,351,0.0,2.0,68,0.00,,,0.00,0.00,VWS V14.01,2013-07-26 03:23:00,
2013-07-25 22:28:00,73.1,62.3,30.02,North,351,0.0,2.0,69,0.00,,,0.00,0.00,VWS V14.01,2013-07-26 03:28:00,
2013-07-25 22:33:00,73.0,62.2,30.02,North,351,0.0,1.0,69,0.00,,,0.00,0.00,VWS V14.01,2013-07-26 03:33:00,
2013-07-25 22:38:00,72.8,62.5,30.01,North,351,0.0,1.0,70,0.00,,,0.00,0.00,VWS V14.01,2013-07-26 03:38:00,
2013-07-25 22:43:00,72.6,62.7,30.01,North,351,0.0,0.0,71,0.00,,,0.00,0.00,VWS V14.01,2013-07-26 03:43:00,
2013-07-25 22:48:00,72.3,62.4,30.01,North,350,0.0,1.0,71,0.00,,,0.00,0.00,VWS V14.01,2013-07-26 03:48:00,
2013-07-25 22:53:00,72.1,62.2,30.01,North,351,0.0,0.0,71,0.00,,,0.00,0.00,VWS V14.01,2013-07-26 03:53:00,
2013-07-25 22:58:00,71.9,62.4,30.01,North,351,0.0,0.0,72,0.00,,,0.00,0.00,VWS V14.01,2013-07-26 03:58:00,
2013-07-25 23:01:00,71.8,62.7,30.01,North,351,0.0,0.0,73,0.00,,,0.00,0.00,VWS V14.01,2013-07-26 04:01:00,
2013-07-25 23:06:00,71.5,62.4,30.01,North,351,0.0,0.0,73,0.00,,,0.00,0.00,VWS V14.01,2013-07-26 04:06:00,
2013-07-25 23:11:00,71.3,62.6,30.01,North,350,0.0,0.0,74,0.00,,,0.00,0.00,VWS V14.01,2013-07-26 04:11:00,
2013-07-25 23:16:00,71.2,62.5,30.00,North,350,0.0,0.0,74,0.00,,,0.00,0.00,VWS V14.01,2013-07-26 04:16:00,
2013-07-25 23:21:00,70.9,62.6,30.01,North,351,0.0,0.0,75,0.00,,,0.00,0.00,VWS V14.01,2013-07-26 04:21:00,
2013-07-25 23:26:00,70.7,62.4,30.00,North,351,0.0,0.0,75,0.00,,,0.00,0.00,VWS V14.01,2013-07-26 04:26:00,
2013-07-25 23:31:00,70.5,62.6,30.01,North,350,0.0,0.0,76,0.00,,,0.00,0.00,VWS V14.01,2013-07-26 04:31:00,
2013-07-25 23:36:00,70.3,62.8,30.01,North,350,0.0,1.0,77,0.00,,,0.00,0.00,VWS V14.01,2013-07-26 04:36:00,
2013-07-25 23:41:00,70.1,62.6,30.01,North,351,0.0,0.0,77,0.00,,,0.00,0.00,VWS V14.01,2013-07-26 04:41:00,
2013-07-25 23:46:00,69.9,62.4,30.01,North,351,0.0,0.0,77,0.00,,,0.00,0.00,VWS V14.01,2013-07-26 04:46:00,
2013-07-25 23:51:00,69.8,62.6,30.01,North,351,0.0,0.0,78,0.00,,,0.00,0.00,VWS V14.01,2013-07-26 04:51:00,
2013-07-25 23:56:00,69.7,62.5,30.01,North,351,0.0,1.0,78,0.00,,,0.00,0.00,VWS V14.01,2013-07-26 04:56:00,